TNO1171 SVMI-MPMG

Flight info

Callsign TNO1171
Flight time 1h 46m
Altitude 43000
Route BUTSA2 PBL UP650 MUBAR
Aircraft C750/M-SBDE3FGHRWXY/S

Departure

Time 2026-05-07 19:32
Airport Maiquetía Simón Bolívar International Airport (SVMI)

Arrival

Time 2026-05-07 21:18
Airport Marcos A. Gelabert International Airport (MPMG)
Time Latitude Longitude Altitude Speed Heading
2026-05-07 19:20 10.59721 -66.99414 207 ft 0 kts 77°
2026-05-07 19:26 10.59722 -66.99412 206 ft 1 kts 77°
2026-05-07 19:26 10.59727 -66.99396 206 ft 4 kts 58°
2026-05-07 19:27 10.59770 -66.99399 206 ft 7 kts 340°
2026-05-07 19:27 10.59809 -66.99421 206 ft 5 kts 294°
2026-05-07 19:27 10.59804 -66.99457 207 ft 5 kts 255°
2026-05-07 19:27 10.59794 -66.99495 209 ft 6 kts 260°
2026-05-07 19:28 10.59797 -66.99535 210 ft 5 kts 279°
2026-05-07 19:28 10.59805 -66.99577 211 ft 7 kts 281°
2026-05-07 19:28 10.59816 -66.99632 213 ft 8 kts 280°
2026-05-07 19:28 10.59805 -66.99683 215 ft 7 kts 251°
2026-05-07 19:29 10.59816 -66.99722 217 ft 5 kts 306°
2026-05-07 19:29 10.59842 -66.99744 219 ft 5 kts 333°
2026-05-07 19:29 10.59878 -66.99740 219 ft 7 kts 36°
2026-05-07 19:29 10.59893 -66.99686 217 ft 6 kts 76°
2026-05-07 19:30 10.59897 -66.99674 216 ft 0 kts 75°
2026-05-07 19:31 10.59898 -66.99669 216 ft 2 kts 77°
2026-05-07 19:31 10.59928 -66.99541 211 ft 61 kts 76°
2026-05-07 19:31 10.60124 -66.98756 223 ft 149 kts 76°
2026-05-07 19:32 10.60401 -66.97644 660 ft 174 kts 76°
2026-05-07 19:32 10.60648 -66.96388 1362 ft 187 kts 81°
2026-05-07 19:32 10.60881 -66.95065 2146 ft 194 kts 80°
2026-05-07 19:32 10.61141 -66.93680 2874 ft 206 kts 79°
2026-05-07 19:33 10.61429 -66.92204 3560 ft 221 kts 77°
2026-05-07 19:33 10.62099 -66.90720 4196 ft 245 kts 56°
2026-05-07 19:33 10.63415 -66.89505 4805 ft 269 kts 33°
2026-05-07 19:33 10.65236 -66.88935 5677 ft 279 kts
2026-05-07 19:34 10.66498 -66.89015 6576 ft 268 kts 352°
2026-05-07 19:34 10.68208 -66.89425 8255 ft 241 kts 348°
2026-05-07 19:34 10.69828 -66.89693 9491 ft 235 kts 356°
2026-05-07 19:34 10.71509 -66.89854 10116 ft 253 kts 358°
2026-05-07 19:35 10.73375 -66.89950 10384 ft 285 kts
2026-05-07 19:35 10.75462 -66.90010 10622 ft 314 kts 358°
2026-05-07 19:35 10.77627 -66.90761 10610 ft 351 kts 329°
2026-05-07 19:35 10.79333 -66.92646 10796 ft 375 kts 299°
2026-05-07 19:36 10.79950 -66.95200 11646 ft 376 kts 272°
2026-05-07 19:36 10.79444 -66.97813 12272 ft 382 kts 248°
2026-05-07 19:36 10.78226 -67.00218 12991 ft 383 kts 239°
2026-05-07 19:36 10.76897 -67.02573 13751 ft 385 kts 240°
2026-05-07 19:37 10.75696 -67.05017 14458 ft 388 kts 246°
2026-05-07 19:37 10.74838 -67.07628 15134 ft 391 kts 255°
2026-05-07 19:37 10.74264 -67.10340 15833 ft 393 kts 259°
2026-05-07 19:37 10.73718 -67.13068 16496 ft 395 kts 257°
2026-05-07 19:38 10.72993 -67.15768 17210 ft 397 kts 253°
2026-05-07 19:38 10.72180 -67.18462 17920 ft 399 kts 253°
2026-05-07 19:38 10.71450 -67.21190 18602 ft 402 kts 255°
2026-05-07 19:38 10.70770 -67.23956 19258 ft 405 kts 255°
2026-05-07 19:39 10.70045 -67.26739 19931 ft 409 kts 254°
2026-05-07 19:39 10.69276 -67.29530 20646 ft 411 kts 254°
2026-05-07 19:39 10.68516 -67.32348 21354 ft 414 kts 255°
2026-05-07 19:39 10.67778 -67.35189 22013 ft 417 kts 255°
2026-05-07 19:40 10.67031 -67.38047 22679 ft 420 kts 255°
2026-05-07 19:40 10.66261 -67.40922 23305 ft 423 kts 255°
2026-05-07 19:40 10.65485 -67.43821 23931 ft 426 kts 255°
2026-05-07 19:40 10.64721 -67.46699 24539 ft 429 kts 255°
2026-05-07 19:41 10.63945 -67.49641 25152 ft 432 kts 255°
2026-05-07 19:41 10.63160 -67.52592 25758 ft 434 kts 255°
2026-05-07 19:41 10.62365 -67.55564 26317 ft 438 kts 255°
2026-05-07 19:41 10.61568 -67.58559 26918 ft 440 kts 255°
2026-05-07 19:42 10.60769 -67.61562 27523 ft 441 kts 255°
2026-05-07 19:42 10.59966 -67.64581 28076 ft 444 kts 255°
2026-05-07 19:42 10.59157 -67.67618 28625 ft 446 kts 255°
2026-05-07 19:42 10.58344 -67.70665 29138 ft 448 kts 255°
2026-05-07 19:43 10.57526 -67.73730 29648 ft 450 kts 255°
2026-05-07 19:43 10.56704 -67.76810 30136 ft 452 kts 255°
2026-05-07 19:43 10.55880 -67.79897 30588 ft 455 kts 256°
2026-05-07 19:43 10.55049 -67.83013 31047 ft 457 kts 256°
2026-05-07 19:44 10.54221 -67.86109 31747 ft 452 kts 256°
2026-05-07 19:44 10.53398 -67.89185 32353 ft 450 kts 256°
2026-05-07 19:44 10.52582 -67.92250 32928 ft 449 kts 256°
2026-05-07 19:44 10.51769 -67.95298 33515 ft 446 kts 256°
2026-05-07 19:45 10.50955 -67.98339 34055 ft 445 kts 256°
2026-05-07 19:45 10.50143 -68.01362 34655 ft 442 kts 256°
2026-05-07 19:45 10.49337 -68.04373 35064 ft 445 kts 257°
2026-05-07 19:45 10.48546 -68.07421 35456 ft 446 kts 259°
2026-05-07 19:46 10.48088 -68.10529 35926 ft 445 kts 265°
2026-05-07 19:46 10.47728 -68.13645 36418 ft 444 kts 265°
2026-05-07 19:46 10.47336 -68.16764 36848 ft 446 kts 265°
2026-05-07 19:46 10.46943 -68.19890 37308 ft 446 kts 265°
2026-05-07 19:47 10.46567 -68.23022 37774 ft 447 kts 265°
2026-05-07 19:47 10.46193 -68.26157 38230 ft 448 kts 266°
2026-05-07 19:47 10.45812 -68.29258 38634 ft 449 kts 265°
2026-05-07 19:47 10.45420 -68.32407 39070 ft 449 kts 266°
2026-05-07 19:48 10.45029 -68.35598 39520 ft 449 kts 266°
2026-05-07 19:48 10.44649 -68.38744 40016 ft 448 kts 266°
2026-05-07 19:48 10.44266 -68.41875 40555 ft 445 kts 265°
2026-05-07 19:48 10.43881 -68.44993 41039 ft 444 kts 265°
2026-05-07 19:49 10.43504 -68.48059 41521 ft 442 kts 265°
2026-05-07 19:49 10.43120 -68.51193 42006 ft 440 kts 265°
2026-05-07 19:49 10.42742 -68.54272 42456 ft 439 kts 265°
2026-05-07 19:49 10.42364 -68.57338 42896 ft 437 kts 265°
2026-05-07 19:50 10.41605 -68.63522 42979 ft 453 kts 265°
2026-05-07 19:50 10.40807 -68.69984 42997 ft 469 kts 265°
2026-05-07 19:51 10.39985 -68.76640 43010 ft 481 kts 265°
2026-05-07 19:51 10.39143 -68.83445 43007 ft 489 kts 265°
2026-05-07 19:52 10.38291 -68.90308 43009 ft 490 kts 265°
2026-05-07 19:52 10.37439 -68.97167 42999 ft 489 kts 265°
2026-05-07 19:53 10.36587 -69.04016 43003 ft 489 kts 265°
2026-05-07 19:53 10.35733 -69.10857 43004 ft 487 kts 265°
2026-05-07 19:54 10.34881 -69.17687 42998 ft 488 kts 265°
2026-05-07 19:54 10.34025 -69.24526 43013 ft 489 kts 265°
2026-05-07 19:55 10.33166 -69.31379 43012 ft 489 kts 265°
2026-05-07 19:55 10.32305 -69.38246 43015 ft 490 kts 265°
2026-05-07 19:56 10.31440 -69.45120 43012 ft 491 kts 265°
2026-05-07 19:56 10.30579 -69.51956 43010 ft 492 kts 265°
2026-05-07 19:57 10.29708 -69.58857 43010 ft 493 kts 265°
2026-05-07 19:57 10.28837 -69.65752 43008 ft 493 kts 265°
2026-05-07 19:58 10.27963 -69.72648 43006 ft 492 kts 265°
2026-05-07 19:58 10.27088 -69.79551 43005 ft 493 kts 265°
2026-05-07 19:59 10.26208 -69.86473 43006 ft 494 kts 265°
2026-05-07 19:59 10.25329 -69.93382 43003 ft 494 kts 265°
2026-05-07 20:00 10.24447 -70.00301 43001 ft 494 kts 265°
2026-05-07 20:00 10.23564 -70.07218 42993 ft 494 kts 265°
2026-05-07 20:01 10.22678 -70.14145 42993 ft 494 kts 265°
2026-05-07 20:01 10.21792 -70.21060 42984 ft 494 kts 265°
2026-05-07 20:02 10.20903 -70.27978 42989 ft 494 kts 265°
2026-05-07 20:02 10.20013 -70.34899 42982 ft 494 kts 265°
2026-05-07 20:03 10.19122 -70.41816 42982 ft 494 kts 265°
2026-05-07 20:03 10.18234 -70.48697 42973 ft 495 kts 265°
2026-05-07 20:04 10.17339 -70.55620 42972 ft 495 kts 265°
2026-05-07 20:04 10.16443 -70.62535 42972 ft 495 kts 265°
2026-05-07 20:05 10.15544 -70.69463 42970 ft 495 kts 265°
2026-05-07 20:05 10.14645 -70.76382 42969 ft 495 kts 265°
2026-05-07 20:06 10.13743 -70.83315 42966 ft 496 kts 265°
2026-05-07 20:06 10.12839 -70.90249 42970 ft 496 kts 265°
2026-05-07 20:07 10.11933 -70.97183 42969 ft 495 kts 265°
2026-05-07 20:07 10.11025 -71.04116 42958 ft 496 kts 265°
2026-05-07 20:08 10.10117 -71.11046 42958 ft 495 kts 265°
2026-05-07 20:08 10.09206 -71.17980 42956 ft 496 kts 265°
2026-05-07 20:09 10.08294 -71.24913 42934 ft 496 kts 265°
2026-05-07 20:10 10.06922 -71.35324 42919 ft 497 kts 265°
2026-05-07 20:10 10.05869 -71.42248 42910 ft 497 kts 264°
2026-05-07 20:11 10.04813 -71.49178 42913 ft 497 kts 264°
2026-05-07 20:11 10.03726 -71.56059 42913 ft 497 kts 263°
2026-05-07 20:12 10.02652 -71.62984 42910 ft 497 kts 263°
2026-05-07 20:12 10.01566 -71.69900 42907 ft 497 kts 263°
2026-05-07 20:13 10.00480 -71.76820 42905 ft 496 kts 263°
2026-05-07 20:13 9.99387 -71.83735 42905 ft 497 kts 263°
2026-05-07 20:14 9.98301 -71.90657 42903 ft 497 kts 263°
2026-05-07 20:14 9.97206 -71.97573 42903 ft 497 kts 263°
2026-05-07 20:15 9.96116 -72.04489 42892 ft 497 kts 263°
2026-05-07 20:15 9.95019 -72.11412 42889 ft 497 kts 263°
2026-05-07 20:16 9.93925 -72.18324 42882 ft 497 kts 263°
2026-05-07 20:16 9.92827 -72.25245 42881 ft 497 kts 263°
2026-05-07 20:17 9.91728 -72.32162 42879 ft 497 kts 263°
2026-05-07 20:17 9.90626 -72.39087 42878 ft 496 kts 263°
2026-05-07 20:18 9.89526 -72.45996 42876 ft 496 kts 263°
2026-05-07 20:18 9.88432 -72.52852 42875 ft 495 kts 263°
2026-05-07 20:19 9.87329 -72.59761 42874 ft 496 kts 263°
2026-05-07 20:19 9.86225 -72.66660 42873 ft 495 kts 263°
2026-05-07 20:20 9.85123 -72.73548 42872 ft 495 kts 263°
2026-05-07 20:20 9.84019 -72.80426 42871 ft 494 kts 263°
2026-05-07 20:21 9.82916 -72.87305 42871 ft 494 kts 263°
2026-05-07 20:21 9.81810 -72.94175 42862 ft 494 kts 263°
2026-05-07 20:22 9.80698 -73.01036 42860 ft 493 kts 263°
2026-05-07 20:22 9.79546 -73.07887 42860 ft 492 kts 263°
2026-05-07 20:23 9.78610 -73.13571 42860 ft 492 kts 263°
2026-05-07 20:23 9.77470 -73.20407 42859 ft 491 kts 263°
2026-05-07 20:24 9.76335 -73.27235 42854 ft 491 kts 263°
2026-05-07 20:24 9.75192 -73.34093 42854 ft 495 kts 263°
2026-05-07 20:25 9.74043 -73.40967 42854 ft 494 kts 263°
2026-05-07 20:25 9.72897 -73.47836 42853 ft 494 kts 263°
2026-05-07 20:26 9.71748 -73.54692 42840 ft 493 kts 263°
2026-05-07 20:26 9.70600 -73.61547 42846 ft 493 kts 263°
2026-05-07 20:27 9.69449 -73.68400 42850 ft 494 kts 263°
2026-05-07 20:27 9.68308 -73.75255 42850 ft 493 kts 263°
2026-05-07 20:28 9.67172 -73.82118 42840 ft 493 kts 263°
2026-05-07 20:28 9.66027 -73.88969 42843 ft 493 kts 263°
2026-05-07 20:29 9.64889 -73.95828 42841 ft 493 kts 263°
2026-05-07 20:29 9.63743 -74.02682 42848 ft 494 kts 263°
2026-05-07 20:30 9.62599 -74.09546 42844 ft 494 kts 263°
2026-05-07 20:30 9.61457 -74.16368 42843 ft 494 kts 263°
2026-05-07 20:31 9.60307 -74.23233 42849 ft 494 kts 263°
2026-05-07 20:31 9.59159 -74.30093 42846 ft 494 kts 263°
2026-05-07 20:32 9.58007 -74.36959 42843 ft 494 kts 263°
2026-05-07 20:32 9.56853 -74.43817 42842 ft 494 kts 263°
2026-05-07 20:33 9.55699 -74.50679 42838 ft 494 kts 263°
2026-05-07 20:33 9.54542 -74.57547 42836 ft 494 kts 263°
2026-05-07 20:34 9.53385 -74.64412 42838 ft 494 kts 263°
2026-05-07 20:34 9.52225 -74.71276 42835 ft 494 kts 263°
2026-05-07 20:35 9.51064 -74.78147 42833 ft 495 kts 263°
2026-05-07 20:35 9.49901 -74.85018 42830 ft 495 kts 263°
2026-05-07 20:36 9.48670 -74.91879 42827 ft 496 kts 262°
2026-05-07 20:36 9.47425 -74.98749 42830 ft 495 kts 262°
2026-05-07 20:37 9.46197 -75.05616 42828 ft 496 kts 262°
2026-05-07 20:37 9.44950 -75.12483 42824 ft 496 kts 262°
2026-05-07 20:38 9.43725 -75.19299 42826 ft 496 kts 262°
2026-05-07 20:38 9.42478 -75.26176 42825 ft 496 kts 262°
2026-05-07 20:39 9.41236 -75.33051 42827 ft 495 kts 262°
2026-05-07 20:39 9.40001 -75.39854 42823 ft 491 kts 263°
2026-05-07 20:40 9.38769 -75.46663 42825 ft 492 kts 262°
2026-05-07 20:40 9.37530 -75.53466 42826 ft 491 kts 263°
2026-05-07 20:41 9.36294 -75.60274 42822 ft 492 kts 262°
2026-05-07 20:41 9.35055 -75.67077 42826 ft 491 kts 263°
2026-05-07 20:42 9.33814 -75.73884 42826 ft 492 kts 262°
2026-05-07 20:42 9.32574 -75.80684 42822 ft 491 kts 263°
2026-05-07 20:43 9.31331 -75.87489 42820 ft 492 kts 262°
2026-05-07 20:43 9.30089 -75.94292 42826 ft 492 kts 262°
2026-05-07 20:44 9.28841 -76.01099 42831 ft 491 kts 262°
2026-05-07 20:44 9.27602 -76.07868 42829 ft 493 kts 262°
2026-05-07 20:45 9.26343 -76.14729 42823 ft 492 kts 263°
2026-05-07 20:45 9.25095 -76.21548 42824 ft 493 kts 263°
2026-05-07 20:46 9.23846 -76.28326 42822 ft 493 kts 262°
2026-05-07 20:46 9.22592 -76.35153 42826 ft 493 kts 262°
2026-05-07 20:47 9.21335 -76.41971 42830 ft 493 kts 262°
2026-05-07 20:47 9.20077 -76.48787 42821 ft 493 kts 262°
2026-05-07 20:48 9.18818 -76.55608 42824 ft 493 kts 262°
2026-05-07 20:48 9.17557 -76.62426 42823 ft 493 kts 262°
2026-05-07 20:49 9.16293 -76.69258 42824 ft 493 kts 262°
2026-05-07 20:49 9.15028 -76.76087 42825 ft 494 kts 262°
2026-05-07 20:50 9.13762 -76.82912 42822 ft 493 kts 262°
2026-05-07 20:50 9.12495 -76.89739 42825 ft 494 kts 262°
2026-05-07 20:51 9.11225 -76.96572 42822 ft 494 kts 262°
2026-05-07 20:51 9.09953 -77.03406 42824 ft 494 kts 262°
2026-05-07 20:52 9.08682 -77.10231 42825 ft 494 kts 262°
2026-05-07 20:52 9.07409 -77.17058 42822 ft 494 kts 262°
2026-05-07 20:53 9.06133 -77.23892 42823 ft 494 kts 262°
2026-05-07 20:53 9.04858 -77.30717 42822 ft 494 kts 262°
2026-05-07 20:54 9.03582 -77.37537 42658 ft 485 kts 262°
2026-05-07 20:54 9.02962 -77.40844 41997 ft 472 kts 262°
2026-05-07 20:54 9.02535 -77.44036 41391 ft 458 kts 266°
2026-05-07 20:54 9.02204 -77.47207 40791 ft 448 kts 267°
2026-05-07 20:55 9.01877 -77.50311 40205 ft 441 kts 266°
2026-05-07 20:55 9.01535 -77.53383 39626 ft 440 kts 266°
2026-05-07 20:55 9.01190 -77.56478 39045 ft 446 kts 266°
2026-05-07 20:55 9.00852 -77.59621 38450 ft 453 kts 266°
2026-05-07 20:56 9.00507 -77.62803 37845 ft 457 kts 266°
2026-05-07 20:56 9.00152 -77.66000 37237 ft 458 kts 266°
2026-05-07 20:56 8.99799 -77.69206 36628 ft 459 kts 266°
2026-05-07 20:56 8.99449 -77.72420 36015 ft 461 kts 266°
2026-05-07 20:57 8.99096 -77.75651 35395 ft 463 kts 266°
2026-05-07 20:57 8.98737 -77.78895 34783 ft 466 kts 265°
2026-05-07 20:57 8.98376 -77.82161 34160 ft 468 kts 265°
2026-05-07 20:57 8.98016 -77.85444 33543 ft 472 kts 265°
2026-05-07 20:58 8.97652 -77.88754 32912 ft 474 kts 265°
2026-05-07 20:58 8.97286 -77.92070 32284 ft 476 kts 265°
2026-05-07 20:58 8.96917 -77.95405 31647 ft 479 kts 265°
2026-05-07 20:58 8.96546 -77.98761 31010 ft 481 kts 265°
2026-05-07 20:59 8.96174 -78.02138 30365 ft 485 kts 265°
2026-05-07 20:59 8.95800 -78.05525 29721 ft 483 kts 265°
2026-05-07 20:59 8.95426 -78.08887 29082 ft 479 kts 265°
2026-05-07 20:59 8.95056 -78.12221 28450 ft 475 kts 265°
2026-05-07 21:00 8.94689 -78.15536 27817 ft 473 kts 265°
2026-05-07 21:00 8.94324 -78.18830 27193 ft 470 kts 265°
2026-05-07 21:00 8.93959 -78.22107 26570 ft 467 kts 265°
2026-05-07 21:00 8.93597 -78.25359 25949 ft 465 kts 265°
2026-05-07 21:01 8.93237 -78.28596 25336 ft 462 kts 265°
2026-05-07 21:01 8.92879 -78.31809 24726 ft 459 kts 265°
2026-05-07 21:01 8.92527 -78.34967 24128 ft 457 kts 265°
2026-05-07 21:01 8.92168 -78.38192 23516 ft 454 kts 265°
2026-05-07 21:02 8.91816 -78.41350 22905 ft 450 kts 265°
2026-05-07 21:02 8.91465 -78.44482 22320 ft 446 kts 265°
2026-05-07 21:02 8.91117 -78.47588 21730 ft 442 kts 264°
2026-05-07 21:02 8.90774 -78.50655 21159 ft 439 kts 264°
2026-05-07 21:03 8.90432 -78.53717 20578 ft 436 kts 264°
2026-05-07 21:03 8.90093 -78.56742 19997 ft 431 kts 264°
2026-05-07 21:03 8.89755 -78.59746 19427 ft 430 kts 264°
2026-05-07 21:03 8.89419 -78.62737 18859 ft 425 kts 264°
2026-05-07 21:04 8.89088 -78.65691 18293 ft 422 kts 264°
2026-05-07 21:04 8.88760 -78.68626 17735 ft 418 kts 264°
2026-05-07 21:04 8.88435 -78.71535 17185 ft 415 kts 264°
2026-05-07 21:04 8.88114 -78.74379 16639 ft 411 kts 264°
2026-05-07 21:05 8.87792 -78.77230 16103 ft 406 kts 264°
2026-05-07 21:05 8.87476 -78.80051 15558 ft 402 kts 264°
2026-05-07 21:05 8.87164 -78.82845 15029 ft 399 kts 264°
2026-05-07 21:05 8.86850 -78.85622 14508 ft 395 kts 264°
2026-05-07 21:06 8.86537 -78.88371 14104 ft 394 kts 264°
2026-05-07 21:06 8.86229 -78.91109 13593 ft 390 kts 264°
2026-05-07 21:06 8.85924 -78.93818 13072 ft 387 kts 264°
2026-05-07 21:06 8.85619 -78.96505 12561 ft 383 kts 264°
2026-05-07 21:07 8.85167 -78.99143 12037 ft 378 kts 257°
2026-05-07 21:07 8.84575 -79.01728 11562 ft 376 kts 257°
2026-05-07 21:07 8.84019 -79.04267 11072 ft 359 kts 258°
2026-05-07 21:07 8.83499 -79.06660 10599 ft 338 kts 258°
2026-05-07 21:08 8.82994 -79.08915 10167 ft 320 kts 258°
2026-05-07 21:08 8.82514 -79.11061 9749 ft 307 kts 258°
2026-05-07 21:08 8.82053 -79.13146 9347 ft 302 kts 258°
2026-05-07 21:08 8.81597 -79.15206 8951 ft 299 kts 258°
2026-05-07 21:09 8.81143 -79.17248 8545 ft 297 kts 258°
2026-05-07 21:09 8.80692 -79.19276 8163 ft 295 kts 259°
2026-05-07 21:09 8.80244 -79.21297 7773 ft 294 kts 259°
2026-05-07 21:09 8.79799 -79.23302 7381 ft 292 kts 259°
2026-05-07 21:10 8.79357 -79.25293 6974 ft 289 kts 259°
2026-05-07 21:10 8.78919 -79.27257 6589 ft 285 kts 259°
2026-05-07 21:10 8.78485 -79.29206 6211 ft 283 kts 259°
2026-05-07 21:10 8.78201 -79.30489 5964 ft 282 kts 259°
2026-05-07 21:11 8.77774 -79.32415 5586 ft 278 kts 259°
2026-05-07 21:11 8.77357 -79.34278 5222 ft 267 kts 259°
2026-05-07 21:11 8.76537 -79.37972 4511 ft 268 kts 260°
2026-05-07 21:12 8.76128 -79.39802 4158 ft 265 kts 260°
2026-05-07 21:12 8.75727 -79.41612 3809 ft 263 kts 260°
2026-05-07 21:12 8.75409 -79.43426 3461 ft 260 kts 270°
2026-05-07 21:12 8.75751 -79.45164 3463 ft 250 kts 289°
2026-05-07 21:13 8.76231 -79.46884 3476 ft 255 kts 288°
2026-05-07 21:13 8.76698 -79.48626 3471 ft 257 kts 288°
2026-05-07 21:13 8.77173 -79.50374 3470 ft 258 kts 288°
2026-05-07 21:13 8.77658 -79.52130 3398 ft 261 kts 288°
2026-05-07 21:14 8.78156 -79.53868 3210 ft 246 kts 291°
2026-05-07 21:14 8.79016 -79.55229 2943 ft 223 kts 318°
2026-05-07 21:14 8.80298 -79.56045 2746 ft 219 kts 342°
2026-05-07 21:14 8.81790 -79.56278 2562 ft 217 kts
2026-05-07 21:15 8.83316 -79.56311 2372 ft 219 kts
2026-05-07 21:15 8.84785 -79.56357 2159 ft 206 kts 359°
2026-05-07 21:15 8.86102 -79.56399 1946 ft 178 kts 360°
2026-05-07 21:15 8.87363 -79.56404 1787 ft 183 kts
2026-05-07 21:16 8.88582 -79.56288 1527 ft 161 kts
2026-05-07 21:16 8.89592 -79.56201 1363 ft 135 kts
2026-05-07 21:16 8.90513 -79.56110 1144 ft 132 kts
2026-05-07 21:16 8.91415 -79.56026 961 ft 129 kts
2026-05-07 21:17 8.92302 -79.55949 801 ft 128 kts
2026-05-07 21:17 8.93176 -79.55886 695 ft 125 kts
2026-05-07 21:17 8.94047 -79.55824 570 ft 126 kts
2026-05-07 21:17 8.94926 -79.55762 383 ft 127 kts
2026-05-07 21:18 8.95816 -79.55682 211 ft 130 kts
2026-05-07 21:18 8.96690 -79.55614 45 ft 118 kts
2026-05-07 21:18 8.97410 -79.55555 31 ft 80 kts
2026-05-07 21:18 8.97774 -79.55517 34 ft 30 kts
2026-05-07 21:19 8.97899 -79.55513 33 ft 6 kts 265°
2026-05-07 21:19 8.97852 -79.55522 34 ft 11 kts 177°
2026-05-07 21:19 8.97756 -79.55523 34 ft 16 kts 182°
2026-05-07 21:19 8.97634 -79.55532 33 ft 18 kts 185°
2026-05-07 21:20 8.97510 -79.55544 31 ft 18 kts 184°
2026-05-07 21:20 8.97384 -79.55553 31 ft 18 kts 185°
2026-05-07 21:20 8.97342 -79.55609 31 ft 10 kts 290°
2026-05-07 21:20 8.97367 -79.55676 31 ft 10 kts 291°
2026-05-07 21:21 8.97358 -79.55729 31 ft 8 kts 207°
2026-05-07 21:21 8.97300 -79.55753 31 ft 11 kts 206°
2026-05-07 21:21 8.97228 -79.55799 32 ft 13 kts 214°
2026-05-07 21:21 8.97159 -79.55847 33 ft 11 kts 208°
2026-05-07 21:22 8.97116 -79.55829 32 ft 6 kts 84°
2026-05-07 21:22 8.97137 -79.55816 33 ft 3 kts 356°
2026-05-07 21:22 8.97152 -79.55822 33 ft 0 kts 339°